Miscellaneous Local Product
Issued by NWS North Platte, NE

Home | Current Version | Previous Version | Text Only | Print | Product List | Glossary On
Versions: 1 2 3 4 5 6 7 8 9 10 11 12 13 14 15 16 17 18 19 20 21 22 23 24 25 26 27 28 29 30 31 32 33 34 35 36 37 38 39 40 41 42 43 44 45 46 47 48 49 50
000
AXUS43 KLBF 181110
MISLBF


WESTERN AND NORTH CENTRAL NEBRASKA HOURLY WEATHER ROUNDUP
NATIONAL WEATHER SERVICE NORTH PLATTE NE
600 AM CDT FRI APR 18 2014

***STATIONS NOT REPORTING VARIABLES SUCH AS SKY/WEATHER OR
PRESSURE ARE PROVIDED BY THE NEBRASKA DEPARTMENT OF
ROADS...RAWS...AND APRS NETWORKS...AND ARE NOT UNDER
NATIONAL WEATHER SERVICE QUALITY CONTROL***

...OBSERVATIONS IN AND NEAR THE EASTERN PANHANDLE OF NEBRASKA...

CITY           SKY/WX    TMP DP  RH WIND       PRES   REMARKS
PINE RIDGE     PTCLDY    42  36  79 SW6       29.88S
CHADRON        PTCLDY    43  35  73 CALM      29.86S
ALLIANCE       CLEAR     35  33  92 S8        29.92S WCI  29
SIDNEY         CLEAR     39  34  82 S15       29.97S WCI  31
WHITECLAY        N/A     40  34  77 S17         N/A  WCI  32
CRESCENT LAKE    N/A     38  37  96 S9          N/A  WCI  31
LISCO            N/A     40  33  75 E7          N/A
BIG SPRINGS      N/A     39  36  90 S10         N/A  WCI  32
LEWELLEN         N/A     38  35  88 E6          N/A  WCI  33
$$

...OBSERVATIONS IN SOUTHWEST NEBRASKA AND FAR NORTHEAST COLORADO...

CITY           SKY/WX    TMP DP  RH WIND       PRES   REMARKS
WRAY           FAIR      39  34  82 S10G16    30.04S WCI  33
HOLYOKE        FAIR      37  34  87 S14       30.01F WCI  29
IMPERIAL       CLEAR     39  33  79 S8        30.04F WCI  33
OGALLALA       CLEAR     38  34  86 SW6       30.02S WCI  33
NORTH PLATTE   CLEAR     41  36  82 S15       30.06F
MCCOOK         CLEAR     38  36  92 S9        30.12F WCI  31
LEXINGTON      CLEAR     41  37  88 S12       30.13F
PAXTON           N/A     39  36  89 S14         N/A  WCI  31
SUTHERLAND       N/A     33  32  94 S12         N/A  WCI  25
MEDICINE CREEK   N/A     35  32  90 CALM        N/A
GOTHENBURG       N/A     42  38  87 CALM        N/A
CALLAWAY         N/A     37  34  89 S12         N/A  WCI  29
$$

...OBSERVATIONS IN NORTH CENTRAL NEBRASKA...

CITY           SKY/WX    TMP DP  RH WIND       PRES   REMARKS
VALENTINE      CLEAR     42  35  76 S16       29.97F
THEDFORD       CLEAR     42  37  81 S12G18    30.03S
AINSWORTH      CLEAR     40  34  78 S17       30.01F WCI  31
O`NEILL        CLEAR     37  27  69 SE9       30.10F WCI  30
ORD            CLEAR     35  28  75 SE5       30.13F WCI  31
BROKEN BOW     CLEAR     37  34  89 S14G24    30.10S WCI  28
BROWNLEE         N/A     41  38  89 S18         N/A
SPRINGVIEW       N/A     40  31  70 NE3         N/A
DUNNING          N/A     39  36  87 S8          N/A  WCI  34
BREWSTER         N/A     38  35  85 S9          N/A  WCI  32
ROSE             N/A     39  35  85 E14         N/A  WCI  31
NEWPORT          N/A     40  33  75 S15         N/A  WCI  32
COMSTOCK         N/A     39  35  85 S9          N/A  WCI  33
CHAMBERS         N/A     36  27  71 S12         N/A  WCI  28
EWING            N/A     36  28  72 S3          N/A
$$

...SOME WEATHER OBSERVATIONS FROM AROUND THE REGION...

CITY           SKY/WX    TMP DP  RH WIND       PRES   REMARKS
DENVER         PTCLDY    49  26  41 SW15      29.99S
LARAMIE        CLEAR     39  21  48 SE8       30.02S WCI  33
CHEYENNE       CLEAR     36  27  69 CALM      29.99S
SCOTTSBLUFF    CLEAR     39  33  79 E10       29.92S WCI  32
RAPID CITY     PTCLDY    32  30  92 CALM      29.83F
PIERRE         CLEAR     36  26  67 E13       29.97F WCI  27
WINNER         FAIR      43  31  62 S24G35    29.96F
SIOUX FALLS    MOCLDY    33  28  81 SE13      30.23S WCI  24
OMAHA          PTCLDY    32  28  85 CALM      30.27S
GRAND ISLAND   CLEAR     38  30  73 S10       30.19S WCI  31
KANSAS CITY    PTCLDY    34  31  88 S6        30.29R FOG     WCI  29
WICHITA        CLEAR     33  31  92 CALM      30.25S FOG
HAYS           CLEAR     36  30  80 S6        30.20R WCI  31
LIBERAL        PTCLDY    41  34  75 S9        30.21S
GOODLAND       CLEAR     34  32  92 S18       30.08F WCI  23
$$



USA.gov is the U.S. government's official web portal to all federal, state and local government web resources and services.